| time (UTC) | temp F | wind direction | speed MPH | gust MPH | rain 1hr in | rain 24hr in | rain mn in | humidity % | barometer mb |
| 20260504044537 | 40 | 159 | 1.0 | 3.0 | 0.00 | 0.00 | 0.00 | 82 | 1017.6 |
| 20260504043102 | 39 | 159 | 0.0 | 0.0 | 0.00 | 0.00 | 0.00 | 85 | 1017.6 |
| 20260504041538 | 39 | 159 | 0.0 | 2.0 | 0.00 | 0.00 | 0.00 | 83 | 1017.4 |
| 20260504040019 | 39 | 159 | 0.0 | 2.0 | 0.00 | 0.00 | 0.00 | 81 | 1017.6 |
| 20260504034555 | 39 | 159 | 0.0 | 1.0 | 0.00 | 0.00 | 0.00 | 79 | 1017.7 |
| 20260504033019 | 40 | 159 | 0.0 | 2.0 | 0.00 | 0.00 | 0.00 | 75 | 1017.6 |
| 20260504031602 | 42 | 159 | 0.0 | 0.0 | 0.00 | 0.00 | 0.00 | 73 | 1017.6 |
| 20260504030047 | 43 | 159 | 2.0 | 3.0 | 0.00 | 0.00 | 0.00 | 69 | 1017.8 |
| 20260504024528 | 44 | 159 | 1.0 | 4.0 | 0.00 | 0.00 | 0.00 | 66 | 1017.9 |
| 20260504023059 | 45 | 159 | 3.0 | 5.0 | 0.00 | 0.00 | 0.00 | 62 | 1017.9 |
| 20260504023008 | 45 | 159 | 3.0 | 5.0 | 0.00 | 0.00 | 0.00 | 62 | 1017.8 |
| 20260504021546 | 45 | 189 | 2.0 | 3.0 | 0.00 | 0.00 | 0.00 | 63 | 1017.8 |
| 20260504020021 | 46 | 190 | 1.0 | 3.0 | 0.00 | 0.00 | 0.00 | 62 | 1017.8 |
| 20260504014558 | 47 | 190 | 0.0 | 2.0 | 0.00 | 0.00 | 0.00 | 61 | 1017.7 |
| 20260504013027 | 47 | 195 | 2.0 | 3.0 | 0.00 | 0.00 | 0.00 | 59 | 1017.7 |
| 20260504011505 | 47 | 200 | 1.0 | 2.0 | 0.00 | 0.00 | 0.00 | 62 | 1017.7 |
| 20260504010038 | 48 | 200 | 0.0 | 1.0 | 0.00 | 0.00 | 0.00 | 61 | 1017.5 |
| 20260504004521 | 49 | 200 | 0.0 | 0.0 | 0.00 | 0.00 | 0.00 | 57 | 1017.4 |
| 20260504003059 | 50 | 200 | 1.0 | 3.0 | 0.00 | 0.00 | 0.00 | 53 | 1017.4 |
| 20260504003001 | 50 | 200 | 1.0 | 3.0 | 0.00 | 0.00 | 0.00 | 51 | 1017.4 |
| 20260504001541 | 51 | 200 | 0.0 | 3.0 | 0.00 | 0.00 | 0.00 | 50 | 1017.4 |
| 20260504000010 | 52 | 200 | 1.0 | 5.0 | 0.00 | 0.00 | 0.00 | 49 | 1017.5 |
| 20260503234549 | 52 | 228 | 4.0 | 8.0 | 0.00 | 0.00 | 0.00 | 47 | 1017.6 |
| 20260503233021 | 53 | 234 | 2.0 | 9.0 | 0.00 | 0.00 | 0.00 | 47 | 1017.6 |
| 20260503231602 | 54 | 226 | 6.0 | 10.0 | 0.00 | 0.00 | 0.00 | 44 | 1017.6 |
| 20260503230032 | 54 | 203 | 4.0 | 12.0 | 0.00 | 0.00 | 0.00 | 44 | 1017.7 |
| 20260503224512 | 55 | 261 | 8.0 | 18.0 | 0.00 | 0.00 | 0.00 | 43 | 1017.7 |
| 20260503223041 | 56 | 216 | 8.0 | 13.0 | 0.00 | 0.00 | 0.00 | 42 | 1017.6 |
| 20260503221521 | 56 | 225 | 5.0 | 14.0 | 0.00 | 0.00 | 0.00 | 44 | 1017.7 |
| 20260503220047 | 55 | 190 | 9.0 | 12.0 | 0.00 | 0.00 | 0.00 | 42 | 1017.7 |
| 20260503214540 | 55 | 225 | 6.0 | 12.0 | 0.00 | 0.00 | 0.00 | 42 | 1017.7 |
| 20260503213009 | 55 | 219 | 4.0 | 14.0 | 0.00 | 0.00 | 0.00 | 44 | 1017.8 |
| 20260503211609 | 56 | 270 | 8.0 | 15.0 | 0.00 | 0.00 | 0.00 | 41 | 1017.7 |
| 20260503210027 | 55 | 213 | 6.0 | 16.0 | 0.00 | 0.00 | 0.00 | 42 | 1018.1 |
| 20260503204600 | 56 | 219 | 6.0 | 11.0 | 0.00 | 0.00 | 0.00 | 44 | 1018.1 |
| 20260503204503 | 56 | 161 | 6.0 | 12.0 | 0.00 | 0.00 | 0.00 | 42 | 1018.2 |
| 20260503203031 | 55 | 169 | 8.0 | 15.0 | 0.00 | 0.00 | 0.00 | 44 | 1018.3 |
| 20260503201510 | 55 | 163 | 9.0 | 13.0 | 0.00 | 0.00 | 0.00 | 42 | 1018.4 |
| 20260503200054 | 55 | 240 | 8.0 | 17.0 | 0.00 | 0.00 | 0.00 | 44 | 1018.7 |
| 20260503194523 | 56 | 241 | 3.0 | 14.0 | 0.00 | 0.00 | 0.00 | 50 | 1018.9 |
| 20260503193101 | 55 | 250 | 5.0 | 11.0 | 0.00 | 0.00 | 0.00 | 44 | 1019.1 |
| 20260503191542 | 53 | 213 | 6.0 | 13.0 | 0.00 | 0.00 | 0.00 | 45 | 1019.3 |
| 20260503190008 | 54 | 259 | 5.0 | 12.0 | 0.00 | 0.00 | 0.00 | 48 | 1019.4 |
| 20260503184557 | 53 | 196 | 4.0 | 10.0 | 0.00 | 0.00 | 0.00 | 48 | 1019.5 |
| 20260503183019 | 54 | 263 | 4.0 | 13.0 | 0.00 | 0.00 | 0.00 | 48 | 1019.7 |
| 20260503181610 | 53 | 236 | 7.0 | 15.0 | 0.00 | 0.00 | 0.00 | 47 | 1019.9 |
| 20260503180041 | 52 | 245 | 7.0 | 15.0 | 0.00 | 0.00 | 0.00 | 51 | 1019.9 |
| 20260503174506 | 52 | 219 | 9.0 | 21.0 | 0.00 | 0.00 | 0.00 | 53 | 1020.3 |
| 20260503173043 | 51 | 205 | 6.0 | 13.0 | 0.00 | 0.00 | 0.00 | 50 | 1020.6 |
| 20260503171512 | 50 | 181 | 9.0 | 13.0 | 0.00 | 0.00 | 0.00 | 51 | 1020.6 |
| 20260503081536 | 32 | 238 | 0.0 | 0.0 | 0.00 | 0.00 | 0.00 | 90 | 1019.4 |